315  
ASUS41 KPHI 280012  
RWRPHI  
REGIONAL WEATHER ROUNDUP  
NATIONAL WEATHER SERVICE MOUNT HOLLY NJ  
800 PM EDT SAT AUG 27 2016  
 
NOTE: "FAIR" INDICATES FEW OR NO CLOUDS BELOW 12,000 FEET WITH NO  
SIGNIFICANT WEATHER AND/OR S TO VISIBILITY
.  
 
* = STATION DOES NOT REPORT PRECIPITATION (E.G. RAIN, SNOW, ETC.)  
OR FOG.
 
 
NJZ015>026-280100-  
SOUTHERN NEW JERSEY  
 
CITY SKY/WX TMP DP RH WIND PRES REMARKS
 
POMONA CLOUDY 75 68 78 E6 30.18R  
6HR MIN TEMP: 75; 6HR MAX TEMP: 88;  
 
WILDWOOD* N/A 76 72 87 NE7 30.17R  
MILLVILLE CLEAR 77 68 73 E6 30.18R  
WRIGHTSTOWN CLEAR 74 64 70 E5 30.16R  
MOUNT HOLLY CLOUDY 77 60 55 E5 30.18R  
TRENTON PTCLDY 78 59 51 SE7 30.18R  
6HR MIN TEMP: 78; 6HR MAX TEMP: 89;  
 

 
NJZ001>014-280100-  
NORTHERN NEW JERSEY  
 
CITY SKY/WX TMP DP RH WIND PRES REMARKS
 
SUSSEX CLEAR 73 68 84 CALM 30.21R  
ANDOVER* N/A 73 67 81 CALM 30.21R  
MORRISTOWN PTCLDY 75 63 64 CALM 30.19R  
NEWARK MOCLDY 79 59 50 S5 30.19R  
TETERBORO CLEAR 80 56 43 S6 30.18R  
CALDWELL CLEAR 81 57 43 CALM 30.19R  
SOMERVILLE CLEAR 75 61 61 S3 30.17R  
ALLAIRE* PTCLDY 75 68 78 E3 30.21R  
TOMS RIVER* CLOUDY 75 68 78 SE3 30.20R  
 

 
PAZ043-044-047-054-055-060>062-066>071-280100-  
EASTERN PENNSYLVANIA  
 
CITY SKY/WX TMP DP RH WIND PRES REMARKS
 
PHILADELPHIA CLOUDY 82 61 48 E9 30.18R  
6HR MIN TEMP: 82; 6HR MAX TEMP: 93;  
 
NORTH PHILA CLOUDY 81 60 48 SE8 30.19R  
BLUE BELL* MOCLDY 77 61 57 E6 30.18R  
DOYLESTOWN CLOUDY 78 64 61 CALM 30.19R  
QUAKERTOWN* CLEAR 81 61 50 CALM 30.20R  
POTTSTOWN CLOUDY 83 59 44 E3 30.19R  
LANCASTER CLEAR 81 68 64 NE3 30.17R  
COATESVILLE CLOUDY 79 63 57 CALM 30.20R  
READING PTCLDY 81 65 58 N5 30.17R  
6HR MIN TEMP: 81; 6HR MAX TEMP: 88;  
 
ALLENTOWN CLOUDY 83 60 45 E6 30.18R  
6HR MIN TEMP: 83; 6HR MAX TEMP: 90;  
 
MOUNT POCONO PTCLDY 67 64 90 CALM 30.27R  
6HR MIN TEMP: 67; 6HR MAX TEMP: 79;  
 
WILKES BARRE CLOUDY 78 64 61 SW5 30.21R  
 

 
DEZALL-MDZ008-012-015-019-020-280100-  
DELAWARE AND EASTERN MARYLAND  
 
CITY SKY/WX TMP DP RH WIND PRES REMARKS
 
WILMINGTON PTCLDY 81 70 69 S9 30.17R  
6HR MIN TEMP: 81; 6HR MAX TEMP: 92;  
 
DOVER CLEAR 77 75 96 E6 30.15R  
GEORGETOWN NOT AVBL  
EASTON CLEAR 82 68 61 CALM 30.19R  
PATUXENT CLEAR 81 70 69 NE8 30.14R  
OCEAN CITY CLEAR 77 72 84 NE7 30.15R  
WALLOPS ISLAND CLEAR 79 66 64 NE14 30.15R  
CAMBRIDGE CLEAR 77 63 61 CALM 30.15R  
SALISBURY CLEAR 76 69 79 NE5 30.15R  
 

 
PAZ001-021-NYZ056-072-MDZ011-DCZ001-280100-  
OTHER NEARBY LOCATIONS  
 
CITY SKY/WX TMP DP RH WIND PRES REMARKS
 
HARRISBURG MOCLDY 81 72 74 CALM 30.16R  
STATE COLLEGE CLEAR 79 68 69 CALM 30.20R  
WILLIAMSPORT CLEAR 78 69 73 CALM 30.17R  
BINGHAMTON CLEAR 78 62 57 CALM 30.24R  
NEW YORK CITY CLEAR 78 58 49 VRB5 30.22R  
BALTIMORE PTCLDY 81 66 60 SE3 30.15R  
WASHINGTON DC PTCLDY 85 66 53 E8 30.15R  
 

 
 
 
CLICK HERE TO GO TO PREVIOUS BULLETINS.

The Nexlab PA Page
The Nexlab NJ Page
The Nexlab DE Page
The Nexlab MD Page Main Text Page